Location: Baia Mare
(47.6567°N, 23.5850°E)
Time: 14:18:35
(UTC+03:00)

ISS - Pass Details

Date: 15 July 2019
Orbit: 409 x 418 km, 51.6° (Epoch: 21 July)

Event Time Altitude Azimuth Distance (km) Brightness Sun altitude
Rises 03:21:36 0° 287° (WNW) 2,347 -0.1 -16.5°
Reaches altitude 10° 03:23:45 10° 294° (WNW) 1,483 -1.0 -16.3°
Maximum altitude 03:26:57 43° 8° (N) 595 -2.5 -16.1°
Drops below altitude 10° 03:30:08 10° 81° (E) 1,477 -0.5 -15.8°
Sets 03:32:17 0° 89° (E) 2,337 0.5 -15.6°
